Weather Roundup
Issued by NWS

Home | Current Version | Previous Version | Graphics & Text | Print | Product List | Glossary Off
Versions: 1 2 3 4 5 6 7 8 9 10 11 12 13 14 15 16 17 18 19 20 21 22 23 24 25 26 27 28 29 30 31 32 33 34 35 36 37 38 39 40 41 42 43 44 45 46 47 48 49 50

000
NZUS93 KARX 171359
HRRWXR

CURRENT HOURLY OBSERVATIONS ACROSS
MUCH OF THE UPPER MISSISSIPPI VALLEY
NATIONAL WEATHER SERVICE LA CROSSE WI
900 AM CDT THU APR 17 2014


...SOUTHEAST MINNESOTA...


CITY           SKY/WX    TMP DP  RH WIND       PRES   REMARKS
ROCHESTER      CLOUDY    32  29  88 NW15      30.15R FOG     WCI  22
ROCHESTER/MAYO CLOUDY    31  30  96 NW17      30.14R WCI  20
WINONA         CLOUDY    36  32  87 NW9       30.13R WCI  29
AUSTIN         CLOUDY    30  28  93 NW12      30.17R WCI  21
ALBERT LEA     CLOUDY    30  28  93 NW9       30.19R WCI  22
DODGE CENTER   CLOUDY    34  34 100 NW14      30.16R FOG     WCI  24
PRESTON        CLOUDY    32  31  96 NW14      30.15R FOG     WCI  22
OWATONNA       CLOUDY    30  27  86 NW14      30.18R WCI  20
FARIBAULT      CLOUDY    34  27  75 NW15      30.19R WCI  24
$$

...ELSEWHERE IN MINNESOTA...


CITY           SKY/WX    TMP DP  RH WIND       PRES   REMARKS
MINNEAPOLIS    CLOUDY    29  27  92 NW14      30.19R WCI  18
INTNL FALLS    SUNNY     25  12  58 NE9       30.29S WCI  15
DULUTH         CLOUDY    26  21  81 N14       30.15R WCI  14
RED WING       CLOUDY    34  30  86 NW8       30.15R WCI  27
REDWOOD FALLS  SUNNY     25  19  78 NW13      30.27R WCI  14
MANKATO        CLOUDY    28  25  86 N15       30.23R WCI  17
WORTHINGTON    SUNNY     25  18  74 N15       30.27R WCI  12
FAIRMONT       CLOUDY    27  21  80 N13       30.27R WCI  16
$$

...SOUTHWEST WISCONSIN...


CITY           SKY/WX    TMP DP  RH WIND       PRES   REMARKS
LA CROSSE      CLOUDY    44  37  76 NW13      30.09R
PRAIRIE DU CHI CLOUDY    37  32  84 W10       30.14R WCI  29
BOSCOBEL       CLOUDY    39  33  79 SW10      30.13R WCI  32
LONE ROCK      NOT AVBL
PLATTEVILLE    NOT AVBL
FORT MC COY    SUNNY     45  37  72 W8        30.06R
VIROQUA        CLOUDY    40  40  97 W10       30.06R WCI  34
WIS DELLS      CLOUDY    40  35  79 W16G22    30.04R WCI  32
$$

...ELSEWHERE IN WISCONSIN...


CITY           SKY/WX    TMP DP  RH WIND       PRES   REMARKS
MILWAUKEE      PTSUNNY   48  32  53 S9        30.11R
MADISON        CLOUDY    44  37  76 SW8       30.07R
GREEN BAY      CLOUDY    38  30  73 SE14G23   30.09S WCI  30
EAU CLAIRE     CLOUDY    36  34  92 NW8       30.09R WCI  30
BLACK RVR FLS  FAIR      42  38  87 CALM      30.04R
MEDFORD        CLOUDY    33  32  96 E3        30.04R FOG
WAUSAU         LGT RAIN  34  32  92 E8        30.04R FOG     WCI  27
WIS RAPIDS     MOSUNNY   40  33  76 E9        30.05R WCI  34
MARSHFIELD     CLOUDY    37  35  92 E9        30.04R FOG     WCI  30
RICE LAKE      CLOUDY    31  29  93 NW8       30.12R FOG     WCI  24
$$

...NORTHEAST IOWA...


CITY           SKY/WX    TMP DP  RH WIND       PRES   REMARKS
WATERLOO       CLOUDY    35  30  82 NW10G22   30.19R WCI  27
DUBUQUE        CLOUDY    36  32  85 W18       30.14R WCI  26
DECORAH        CLOUDY    34  34 100 W9        30.12R FOG     WCI  26
MASON CITY     CLOUDY    31  28  89 NW14      30.22R WCI  21
CHARLES CITY   CLOUDY    32  30  93 W12G18    30.18R WCI  23
OELWEIN        CLOUDY   N/A N/A N/A NW20      30.17R
$$

...ELSEWHERE IN IOWA...


CITY           SKY/WX    TMP DP  RH WIND       PRES   REMARKS
DES MOINES     CLOUDY    36  27  69 N16       30.25R WCI  26
IOWA CITY      CLOUDY    38  31  76 NW16      30.21R WCI  29
FORT DODGE     CLOUDY    30  25  80 NW10      30.27R WCI  21
MARSHALLTOWN   CLOUDY    33  29  85 NW17      30.22R WCI  22
CEDAR RAPIDS   CLOUDY    36  29  75 W21       30.18R WCI  25
$$

...NORTHERN ILLINOIS...


CITY           SKY/WX    TMP DP  RH WIND       PRES   REMARKS
CHICAGO-OHARE  MOSUNNY   49  29  46 SW18      30.14S
DUPAGE         SUNNY     48  31  51 SW14      30.14R
CHICAGO-MIDWAY PTSUNNY   48  30  49 S17G26    30.16R
MOLINE         CLOUDY    41  33  73 W13       30.17R
ROCKFORD       CLOUDY    47  36  65 W10       30.14R
STERLING       CLOUDY    46  37  71 W18       30.15R
PEORIA         MOSUNNY   50  36  58 NW8       30.18R
$$

NOTE: "FAIR" INDICATES FEW OR NO CLOUDS BELOW 12,000 FEET WITH NO
SIGNIFICANT WEATHER AND/OR OBSTRUCTIONS TO VISIBILITY. WIND
SPEEDS ARE IN MILES-PER-HOUR.



USA.gov is the U.S. government's official web portal to all federal, state and local government web resources and services.